Location: Watson Lake
(60.1170°N, 128.8000°W)
Time: 07:40:42
(UTC-07:00)

Daily predictions for brighter satellites

Satellite Brightness Start Highest point End
(mag) Time Altitude Azimuth Time Altitude Azimuth Time Altitude Azimuth
ATLAS 3B R/B 3.1 22:04:47 10° WNW 22:11:57 69° NNE 22:18:43 10° E
NOAA 11 4.4 22:09:44 10° SSE 22:15:14 79° WSW 22:20:46 10° NNW
Meteor 1-20 Rocket 4.3 22:11:33 10° NNW 22:17:08 90° W 22:22:47 10° SSE
Cosmos 2322 4.2 22:13:02 10° S 22:18:19 40° ESE 22:23:36 10° NE
Okean 2 Rocket 3.2 22:14:22 10° NNW 22:18:57 89° ENE 22:23:29 10° SSE
Intercosmos 25 Rocket 4.4 22:15:34 10° SSW 22:19:21 61° WNW 22:25:15 10° NNE
USA 245 3.9 22:16:15 10° SSE 22:21:35 88° W 22:25:53 10° NNW
SL-16 R/B 2.2 22:18:40 10° SW 22:24:22 83° SE 22:30:05 10° NE
Terra 2.3 22:20:06 10° SE 22:24:40 48° ENE 22:29:16 10° N
Cosmos 1933 3.7 22:21:01 10° SSW 22:25:03 69° WNW 22:29:05 10° N
ARGOS 3.3 22:20:56 10° SSE 22:26:19 82° WSW 22:31:46 10° NNW
H-2A R/B 2.0 22:21:49 10° SSE 22:26:46 74° ENE 22:31:42 10° NNW
Okean 1-7 3.3 22:24:27 10° S 22:28:43 50° E 22:33:00 10° NNE
Cosmos 1862 Rocket 4.2 22:24:29 10° SSW 22:28:57 64° WNW 22:33:27 10° N
USA 238 DEB 4.1 22:26:44 10° WNW 22:33:48 72° NNE 22:40:54 10° E
USA 238 4.1 22:26:50 10° WNW 22:33:53 72° NNE 22:41:00 10° E
PSLV R/B 4.0 22:32:32 10° SE 22:35:04 32° ENE 22:37:39 10° N
Cosmos 2278 Rocket 2.3 22:29:58 10° NW 22:35:42 86° SW 22:41:23 10° SE
Cosmos 1844 Rocket 3.4 22:31:01 10° NW 22:36:24 50° WSW 22:41:46 10° S
YAOGAN 6 4.4 22:33:29 10° SSW 22:36:43 30° W 22:39:56 10° NNW
Cosmos 2084 4.1 22:34:35 10° WNW 22:38:07 37° SW 22:41:44 10° SSE
COSMOS 2455 4.1 22:32:24 10° WNW 22:38:10 44° N 22:43:57 10° ENE
Cosmos 2237 Rocket 3.8 22:37:44 10° SE 22:41:11 17° E 22:44:37 10° ENE
Cosmos 2333 Rocket 3.5 22:37:41 10° SSE 22:41:53 21° ESE 22:46:06 10° NE
Cosmos 1937 Rocket 3.8 22:39:12 10° NNW 22:44:29 62° NE 22:49:30 11° SE
Cosmos 1703 Rocket 3.6 22:44:58 10° SSW 22:49:25 87° WNW 22:53:52 10° NNE
ERS-1 Rocket 4.4 22:45:15 10° SSW 22:49:51 36° W 22:54:31 10° NNW
Cosmos 44 Rocket 4.2 22:45:20 10° WNW 22:50:01 47° N 22:54:38 10° E
Cosmos 1782 3.1 22:48:07 10° S 22:52:01 51° E 22:55:56 10° NNE
SeaSat 1 3.4 22:48:10 10° S 22:52:51 42° WSW 22:57:35 10° NW
Cosmos 2151 Rocket 3.6 22:48:40 10° NNW 22:53:08 85° WSW 22:57:36 10° S
Cosmos 990 Rocket 4.2 22:49:40 10° NNW 22:54:49 63° NE 22:59:34 12° SE
Cosmos 2150 Rocket 4.2 22:52:19 10° NNW 22:57:46 75° NE 23:02:45 13° SE
Cosmos 1607 4.2 22:51:50 10° WNW 22:58:09 75° NNE 23:04:35 10° ESE
Cosmos 1745 Rocket 4.1 22:54:16 10° NNW 23:00:37 74° ENE 23:06:41 11° SSE
Cosmos 1602 3.7 22:57:02 10° NNW 23:00:54 86° ENE 23:04:25 12° SSE
Helios 1B rocket 4.2 23:00:35 10° N 23:04:20 35° WNW 23:08:05 10° SW
CARTOSAT-1 3.6 23:00:18 12° SSE 23:04:20 85° ENE 23:08:42 10° NNW
NOSS 3-2 (C) 4.2 22:58:29 10° WNW 23:05:13 69° N 23:12:47 10° E
Cosmos 2219 Rocket 2.9 23:01:29 10° S 23:06:26 33° ESE 23:11:25 10° NE
Meteor 2-10 Rocket 4.3 23:01:12 10° SSW 23:06:59 64° WNW 23:12:40 10° NNE
Cosmos 1461 3.9 23:04:04 10° WNW 23:07:55 43° N 23:11:51 10° E
Cosmos 1346 Rocket 3.6 23:05:01 14° SSE 23:08:02 35° E 23:11:43 10° NNE
Cosmos 1898 Rocket 3.5 23:02:52 10° NNW 23:08:06 82° WSW 23:12:38 14° SSE
CENTAUR R/B 3.2 23:01:45 10° W 23:08:33 71° N 23:16:20 10° ENE
Iridium 4 Rocket 3.2 23:04:52 10° N 23:09:03 57° E 23:12:28 14° SSE
Cosmos 1633 2.9 23:06:15 10° NNW 23:09:54 65° W 23:13:21 11° S
Genesis I 4.4 23:06:13 10° WNW 23:10:01 43° N 23:13:51 10° ENE
Cosmos 2221 Rocket 3.8 23:05:44 10° SSW 23:10:10 75° WNW 23:14:40 10° NNE
Okean 1 Rocket 3.2 23:06:08 10° N 23:10:34 67° ENE 23:14:17 15° SSE
DNEPR-1 R/B 4.4 23:09:16 10° W 23:14:08 57° NNW 23:18:25 10° ENE
SPOT 1/Viking Rocket 4.3 23:09:43 10° S 23:14:48 50° W 23:19:54 10° NNW
SPOT 5 4.1 23:10:41 10° SSW 23:15:01 35° W 23:19:11 10° NNW
Cosmos 1125 Rocket 4.3 23:11:42 10° NNW 23:16:50 46° NE 23:21:51 11° ESE
Cosmos 2292 Rocket 3.2 23:16:54 10° N 23:19:58 45° ENE 23:21:48 19° SE
IGS 5A 3.5 23:16:38 13° SSE 23:20:16 78° WSW 23:24:28 10° NNW
Cosmos 1674 Rocket 4.0 23:18:35 14° SSE 23:22:00 45° E 23:26:08 10° NNE
Cosmos 1975 4.3 23:19:24 10° N 23:22:53 27° ENE 23:25:49 13° ESE
Meteor 1-27 Rocket 3.9 23:18:02 11° S 23:23:14 53° E 23:28:39 10° NNE
NOSS 3-1 (C) 4.2 23:18:36 10° S 23:23:53 33° ESE 23:29:47 10° ENE
DELTA 2 DEB (DPAF) 4.2 23:21:30 16° SSE 23:25:07 76° ENE 23:29:38 10° NNW
ASTEX 1 3.5 23:21:22 12° S 23:26:04 84° W 23:31:06 10° N
USA 229 DEB 3.8 23:22:36 10° SSW 23:29:18 58° SE 23:36:11 10° ENE
USA 229 3.8 23:22:43 10° SSW 23:29:25 58° SE 23:36:17 10° ENE
Cosmos 44 4.0 23:25:40 10° WNW 23:30:06 49° NNE 23:34:21 10° E
Cosmos 2297 3.8 23:25:03 10° NW 23:30:48 76° SW 23:35:21 16° SSE
CZ-2C R/B 4.1 23:26:56 11° ESE 23:31:03 34° NE 23:35:37 10° N
Cosmos 2369 Rocket 3.1 23:25:57 10° NW 23:31:20 45° NNE 23:36:45 10° ESE
H-2A R/B 2.7 23:28:29 12° S 23:32:22 52° WSW 23:36:43 10° NNW
NOSS 0 Rocket 4.5 23:29:27 11° S 23:34:45 38° ESE 23:40:21 10° NE
Cosmos 2237 4.2 23:30:41 10° SSW 23:36:24 79° SE 23:42:10 10° NE
GENESIS II 4.5 23:32:28 10° WSW 23:36:33 76° NNW 23:40:37 10° ENE
Meteor 1-11 Rocket 4.1 23:33:01 10° NNW 23:38:27 58° W 23:43:31 12° S
Cosmos 2322 Rocket 3.3 23:33:08 10° WSW 23:38:35 49° NW 23:44:06 10° NE
USA 129 2.5 23:38:09 10° N 23:39:51 41° WNW 23:41:10 16° SW
NOSS 3-1 (A) 4.2 23:35:07 11° S 23:40:07 32° ESE 23:46:00 10° ENE
USA 267 3.2 23:34:33 10° E 23:41:05 67° S 23:47:37 10° WSW
Cosmos 1943 Rocket 3.4 23:36:57 10° NW 23:42:17 39° NNE 23:47:36 10° E
CRYOSAT 2 4.4 23:38:31 14° S 23:42:42 83° W 23:47:37 10° N
ATLAS 2AS CENTAUR R/B 4.5 23:39:39 13° SE 23:42:55 17° ESE 23:47:36 10° ENE
Meteor 1-10 Rocket 4.4 23:38:32 10° SSW 23:44:28 83° WNW 23:50:19 10° NNE
Molniya-1 4.3 23:41:37 10° W 23:44:31 72° N 23:49:24 10° ENE
NOSS 3-2 (A) 4.0 23:38:12 10° WNW 23:45:07 77° NNE 23:52:50 10° ESE
ALOS 2 3.6 23:42:05 15° ESE 23:45:21 38° ENE 23:49:27 10° N
Cosmos 1536 3.1 23:41:27 10° NNW 23:45:30 66° W 23:48:30 17° S
Cosmos 1606 3.0 23:41:52 10° SSW 23:45:38 64° WNW 23:49:25 10° N
COSMOS 2428 2.7 23:40:00 10° SSW 23:45:40 75° SE 23:51:25 10° NE
Cosmos 1975 Rocket 4.1 23:43:21 18° SE 23:45:52 31° E 23:49:51 10° NNE
Cosmos 2360 Rocket 2.5 23:40:50 10° SW 23:46:30 71° NW 23:52:13 10° NE
Cosmos 1300 Rocket 4.1 23:42:49 10° NNW 23:47:03 52° W 23:50:38 14° S
Cosmos 1980 Rocket 4.1 23:43:18 10° W 23:48:28 33° NNW 23:53:38 10° NE
SL-24 DEB 4.4 23:45:35 19° SSE 23:48:51 61° E 23:53:26 10° N
CZ-4C R/B 3.6 23:43:02 10° WNW 23:49:13 38° SW 23:54:49 15° S
Cosmos 1553 Rocket 4.0 23:46:26 10° S 23:52:43 86° ESE 23:58:56 10° NNE
Geosat 4.4 23:49:36 10° NE 23:54:24 42° ESE 23:58:05 16° S
